date,time,DOY,Ta_1_1_1,Pa_1_1_1,RH_1_1_1,LWin_1_1_1,LWout_1_1_1,SWin_1_1_1,SWout_1_1_1,PPFD_1_1_1,MWS_1_1_1,WD_1_1_1,SWC_1_1_1,Ts_1_1_1
[yyyy-mm-dd],[HH:MM],[ddd.ddd],[K],[Pa],[%],[W+1m-2],[W+1m-2],[W+1m-2],[W+1m-2],[µmol+1m-2s-1],[m+1s-1],[deg],[m+3m-3],[K]
2018-05-29,00:30,149.020,298.37333333333328,94817.266666666663,45.835999999999991,449.80999999999989,389.92666666666668,38.659000000000006,145.25900000000001,300.39866666666666,4.2266666666666666,74.033333333333331,0.28999999999999992,288.59000000000003
2018-05-29,01:00,149.041,297.73333333333341,94836.266666666663,45.620666666666665,444.00433333333342,384.90933333333334,18.795000000000005,66.501333333333335,142.19100000000000,3.8166666666666660,96.289000000000001,0.28999999999999992,288.54466666666673
2018-05-29,01:30,149.062,296.78100000000012,94855.233333333337,48.270333333333333,436.93299999999999,380.45666666666676,4.4723333333333306,14.067666666666668,38.372333333333330,3.9500000000000006,44.632999999999996,0.28999999999999992,288.48233333333326
2018-05-29,02:00,149.083,295.99299999999988,94894.033333333340,51.848333333333336,432.04266666666666,378.13733333333323,1.1559999999999999,-1.2543333333333331,4.9966666666666679,4.2066666666666670,46.867000000000004,0.28999999999999992,288.40999999999991
2018-05-29,02:30,149.104,295.27233333333328,94926.033333333340,55.395666666666671,428.51233333333334,385.83199999999999,0.55700000000000016,-2.9293333333333340,0.12400000000000001,4.0766666666666671,38.756333333333338,0.28999999999999992,288.33166666666676
2018-05-29,03:00,149.124,295.02866666666677,94950.233333333337,56.520666666666656,428.13366666666667,403.09066666666666,0.47799999999999992,-1.6640000000000001,-1.00000000000000002E-003,3.5200000000000009,54.032666666666664,0.28999999999999992,288.25199999999990
2018-05-29,03:30,149.145,294.91133333333335,94945.833333333328,56.886000000000003,425.71766666666667,377.67733333333331,0.61299999999999988,-3.2629999999999999,4.00000000000000008E-003,3.4599999999999995,64.344999999999999,0.28999999999999992,288.17066666666670
2018-05-29,04:00,149.166,294.39766666666662,94931.866666666669,58.907333333333320,422.36733333333336,374.53033333333332,0.64300000000000002,-3.3719999999999994,-2.66666666666666701E-003,3.0933333333333342,72.066666666666663,0.28999999999999992,288.09500000000008
2018-05-29,04:30,149.187,293.98333333333335,94937.733333333337,60.134666666666668,420.20666666666665,374.21066666666661,0.70099999999999996,-3.2220000000000004,3.00000000000000006E-003,2.9166666666666665,65.278000000000006,0.28999999999999992,288.01100000000002
2018-05-29,05:00,149.208,293.49533333333329,94941.566666666666,61.634666666666689,418.00233333333347,373.38466666666670,0.70633333333333315,-3.0996666666666663,4.00000000000000008E-003,2.7166666666666668,66.021666666666675,0.28999999999999992,287.92899999999997
2018-05-29,05:30,149.229,293.19433333333330,94994.933333333334,61.646000000000001,417.10266666666661,388.79299999999989,0.61399999999999999,-1.8146666666666671,4.66666666666666705E-003,3.5199999999999991,98.744333333333330,0.28999999999999992,287.85000000000008
2018-05-29,06:00,149.249,293.00800000000004,95070.466666666660,61.945666666666668,417.24299999999999,399.52866666666677,0.25466666666666665,-1.1283333333333336,4.00000000000000008E-003,3.8699999999999997,141.30033333333333,0.28999999999999992,287.77566666666672
2018-05-29,06:30,149.270,293.00466666666676,95137.366666666669,62.948999999999998,417.17033333333353,396.39866666666660,0.56133333333333346,-1.1750000000000000,-1.00000000000000019E-002,3.1966666666666663,190.62200000000001,0.28999999999999992,287.70966666666664
2018-05-29,07:00,149.291,293.02566666666667,95106.266666666663,66.712333333333319,417.22299999999996,404.27133333333336,0.28866666666666674,-0.82133333333333336,6.00000000000000012E-003,3.2300000000000000,154.98900000000000,0.28999999999999992,287.64266666666674
2018-05-29,07:30,149.312,292.90999999999997,95025.566666666666,70.356333333333325,414.37533333333334,378.02000000000004,0.44766666666666666,-2.4429999999999996,3.00000000000000006E-003,2.3100000000000001,99.556000000000012,0.28999999999999992,287.58600000000001
2018-05-29,08:00,149.333,292.63966666666681,94970.566666666666,72.109666666666669,411.87533333333340,369.94933333333324,0.73799999999999977,-2.6613333333333329,6.33333333333333231E-003,2.7066666666666666,93.566333333333333,0.28999999999999992,287.52600000000007
2018-05-29,08:30,149.354,292.31033333333340,94902.000000000000,73.897999999999996,411.08933333333323,372.16566666666671,0.61233333333333340,-2.4826666666666668,7.66666666666666712E-003,3.3033333333333328,91.688666666666663,0.28999999999999992,287.47300000000007
2018-05-29,09:00,149.374,292.02733333333333,94853.966666666660,75.033333333333331,410.80599999999998,377.73933333333332,0.63233333333333330,-2.0023333333333331,-2.00000000000000004E-003,3.6266666666666665,92.722333333333339,0.28999999999999992,287.42066666666665
2018-05-29,09:30,149.395,292.06900000000002,94840.666666666672,74.609999999999985,411.13266666666658,382.34699999999992,0.54266666666666663,-1.7486666666666670,6.33333333333333231E-003,3.7066666666666661,104.74500000000002,0.28999999999999992,287.37299999999999
2018-05-29,10:00,149.416,291.99000000000012,94765.899999999994,74.404333333333341,411.23400000000004,386.63566666666674,0.70033333333333336,-1.1189999999999998,0.30766666666666670,3.6133333333333328,91.555333333333323,0.28999999999999992,287.32600000000008
2018-05-29,10:30,149.437,291.58566666666667,94798.433333333334,73.928999999999988,408.75633333333343,372.78633333333340,1.1356666666666666,2.7656666666666667,9.3489999999999984,4.3666666666666663,107.42166666666665,0.28999999999999992,287.28933333333339
2018-05-29,11:00,149.458,291.08866666666682,94855.666666666672,75.951000000000008,405.76766666666668,364.73733333333342,6.1943333333333319,27.416333333333338,53.137999999999984,3.9000000000000004,123.96633333333331,0.28999999999999992,287.24733333333336
2018-05-29,11:30,149.479,291.06466666666682,94873.199999999997,75.064999999999984,405.75366666666667,359.72699999999998,8.7776666666666667,47.333666666666659,99.099333333333334,4.5100000000000007,111.40000000000001,0.28999999999999992,287.20599999999996
2018-05-29,12:00,149.499,291.09199999999993,94882.033333333340,71.451333333333338,406.12533333333323,355.92966666666672,15.325999999999999,88.620999999999967,174.75266666666667,5.1033333333333326,108.67766666666667,0.28999999999999992,287.16999999999996
2018-05-29,12:30,149.520,290.94533333333334,94882.866666666669,70.037666666666652,405.88733333333334,358.38066666666663,18.989666666666661,114.24399999999999,231.53399999999999,5.4500000000000002,113.25533333333333,0.28999999999999992,287.13666666666666
2018-05-29,13:00,149.541,291.16600000000011,94878.600000000006,68.021999999999991,408.40366666666665,355.42666666666668,39.615333333333332,236.82166666666669,463.40633333333341,4.8833333333333320,109.13366666666667,0.28999999999999992,287.09799999999996
2018-05-29,13:30,149.562,292.75133333333338,94871.166666666672,62.755333333333326,420.61599999999993,365.87366666666662,74.335999999999999,443.60366666666653,850.97099999999989,4.8366666666666678,105.16733333333335,0.28999999999999992,287.06466666666677
2018-05-29,14:00,149.583,294.28633333333335,94862.266666666663,58.137333333333331,431.30799999999999,375.33499999999998,91.937333333333342,549.97333333333324,1072.6836666666668,4.7166666666666668,102.97733333333332,0.28999999999999992,287.04633333333345
2018-05-29,14:30,149.604,295.26366666666672,94860.000000000000,55.341000000000001,438.82366666666661,382.40866666666659,103.28800000000003,626.59133333333341,1239.1756666666670,4.8733333333333340,102.28900000000000,0.28999999999999992,287.05200000000002
2018-05-29,15:00,149.624,296.26900000000001,94867.066666666666,53.362999999999992,444.54166666666669,387.49733333333330,101.99366666666670,632.21099999999990,1276.8700000000001,3.9233333333333333,103.32233333333333,0.28999999999999992,287.09100000000007
2018-05-29,15:30,149.645,297.20500000000004,94871.800000000003,49.997999999999998,452.33099999999996,394.14333333333343,122.35400000000003,758.04766666666683,1535.1136666666669,4.1299999999999999,132.40000000000001,0.28999999999999992,287.15333333333336
2018-05-29,16:00,149.666,298.09333333333336,94859.899999999994,47.805000000000000,459.12766666666670,399.10666666666657,130.16499999999999,815.90233333333333,1668.3383333333331,3.2000000000000006,126.82266666666668,0.28999999999999992,287.23366666666681
2018-05-29,16:30,149.687,298.64699999999993,94852.899999999994,46.702666666666659,463.87266666666682,404.59633333333335,137.34533333333329,862.02933333333362,1774.5993333333329,4.0266666666666664,132.06666666666669,0.28966666666666657,287.35099999999994
2018-05-29,17:00,149.708,299.44333333333338,94818.533333333340,44.697666666666670,468.45633333333342,408.60333333333330,140.30033333333338,877.98099999999988,1815.1573333333333,4.3899999999999997,117.16633333333334,0.28000000000000014,287.49733333333342
2018-05-29,17:30,149.729,300.04433333333338,94798.766666666663,42.850666666666669,472.16633333333334,413.17233333333320,145.42099999999999,912.60333333333335,1893.1956666666667,5.1966666666666672,114.08933333333333,0.28100000000000008,287.66399999999999
2018-05-29,18:00,149.749,300.80666666666673,94792.833333333328,41.587666666666664,477.32833333333349,417.36899999999997,147.18933333333328,922.75000000000000,1925.8329999999996,4.6633333333333331,123.43299999999999,0.28100000000000008,287.82633333333337
2018-05-29,18:30,149.770,301.12233333333330,94772.333333333328,41.746333333333332,479.22566666666665,419.42000000000013,147.02566666666664,918.12199999999996,1924.3750000000005,5.1866666666666665,115.36766666666668,0.28000000000000014,287.99500000000006
2018-05-29,19:00,149.791,301.47000000000008,94753.899999999994,41.977333333333341,481.91700000000003,421.65433333333328,147.15433333333334,902.71766666666667,1901.8486666666661,4.6533333333333333,108.75533333333333,0.28000000000000014,288.16666666666669
2018-05-29,19:30,149.812,302.08233333333339,94734.100000000006,41.138333333333343,485.39366666666660,425.19700000000000,145.54100000000000,874.55900000000008,1851.7970000000000,4.4633333333333329,130.81133333333335,0.28000000000000014,288.35966666666661
2018-05-29,20:00,149.833,302.38766666666675,94691.333333333328,40.996333333333318,485.71233333333328,425.94433333333342,136.27833333333334,810.72899999999981,1722.7833333333331,4.9833333333333325,135.13333333333333,0.28000000000000014,288.61099999999999
2018-05-29,20:30,149.854,302.42433333333338,94646.466666666660,41.388333333333335,484.52266666666679,426.70033333333328,127.24100000000003,735.67899999999986,1558.7753333333335,5.0999999999999988,131.65600000000001,0.28000000000000014,288.85366666666670
2018-05-29,21:00,149.874,302.50400000000002,94614.866666666669,41.997666666666667,482.80100000000010,426.42366666666669,106.99100000000000,607.60633333333328,1283.9716666666668,4.7133333333333338,133.75566666666666,0.28000000000000014,289.04600000000005
2018-05-29,21:30,149.895,302.27633333333347,94588.899999999994,42.846333333333334,478.56366666666668,424.20933333333335,89.943999999999988,494.62000000000000,1044.0443333333333,4.8099999999999996,133.78866666666667,0.28000000000000014,289.17633333333339
2018-05-29,22:00,149.916,302.07233333333340,94553.966666666660,42.998999999999995,475.95233333333334,419.85100000000000,76.223666666666674,414.24699999999990,871.64766666666696,5.7900000000000000,121.72166666666665,0.28000000000000014,289.25966666666676
2018-05-29,22:30,149.937,301.46100000000013,94528.899999999994,44.291000000000011,471.79966666666684,418.77799999999996,81.312333333333356,425.54033333333336,892.30300000000011,5.9533333333333331,122.42266666666667,0.28000000000000014,289.30666666666667
2018-05-29,23:00,149.958,301.36766666666671,94500.266666666663,44.059333333333328,473.02366666666660,417.98733333333325,96.696333333333342,479.84266666666656,1000.1323333333333,6.8666666666666654,125.57833333333335,0.28000000000000014,289.33300000000014
2018-05-29,23:30,149.979,301.06633333333332,94454.000000000000,44.467333333333315,470.03666666666663,412.68866666666673,82.745000000000019,385.43566666666658,798.88866666666638,6.8266666666666698,124.57799999999999,0.28000000000000014,289.33700000000010
2018-05-30,00:00,150.000,300.80333333333328,94426.500000000000,45.694999999999986,467.11566666666664,409.27233333333334,64.651333333333326,282.73733333333331,578.24766666666653,5.4366666666666665,124.21100000000000,0.28000000000000014,289.32866666666661
